Location: Diebersbach
(48.5163°N, 8.0558°E)
Time: 21:32:32
(UTC+00:00)

USA 229 - Pass Details

Date: 02 November 2021
Orbit: 946 x 1266 km, 63.4° (Epoch: 25 November)

Event Time Altitude Azimuth Distance (km) Brightness Sun altitude
Rises 19:58:42 0° 293° (WNW) 3,780 7.5 -38.4°
Reaches altitude 10° 20:01:52 10° 307° (NW) 2,879 6.6 -38.9°
Enters shadow 20:07:01 24° 357° (N) 2,120 5.4 -39.6°
